Voltar ao catálogo

STARLINK-3209

AtivoComunicaçõesVLEO
NORAD 49752·PAYLOAD·🇺🇸 United States

Lançado Dec 2, 2021 de Cape Canaveral Space Force Station

Loading…

Próximas Passagens (próximas 24 horas)

TLE

AtualizadoSource: CelesTrak SupGP

Época: Sep 14, 2026, 20:28 UTC

1 49752C 21115AE  26257.85326389 -.00038971  00000+0 -11516-2 0  2575
2 49752  53.1582 355.7821 0001223  81.7074 357.0161 15.34404705    16

Acompanhe STARLINK-3209 em tempo real com AllMySat

Download on the App Store